Regional Weather Roundup
Issued by NWS

Home | Current Version | Previous Version | Text Only | Print | Product List | Glossary On
Versions: 1 2 3 4 5 6 7 8 9 10 11 12 13 14 15 16 17 18 19 20 21 22 23 24 25 26 27 28 29 30 31 32 33 34 35 36 37 38 39 40 41 42 43 44 45 46 47 48 49 50
000
ASUS43 KTOP 271308
RWRKS

WEATHER ROUNDUP FOR KANSAS
NATIONAL WEATHER SERVICE GOODLAND KS
800 AM CDT SUN MAY 27 2018

NOTE:  "FAIR" INDICATES FEW OR NO CLOUDS BELOW 12,000 FEET WITH NO
SIGNIFICANT WEATHER AND/OR OBSTRUCTIONS TO VISIBILITY.

KSZ001>006-013>018-027>032-041>047-271400-
NORTHWEST KANSAS

CITY           SKY/WX    TMP DP  RH WIND       PRES   REMARKS
GOODLAND       CLOUDY    68  62  81 S16G26    29.88S
HAYS           CLOUDY    67  65  93 S3        29.90R
HILL CITY      CLOUDY    72  68  87 S8        29.89R
RUSSELL        CLOUDY    74  70  87 S12       29.88R
$$

KSZ061>065-074>080-084>089-271400-
SOUTHWEST KANSAS

CITY           SKY/WX    TMP DP  RH WIND       PRES   REMARKS
DODGE CITY     CLOUDY    72  66  81 S10       29.91R
ELKHART        PTSUNNY   70  66  89 SE14      29.88S
GARDEN CITY    CLOUDY    67  64  90 SE13      29.89S
GREAT BEND     PTSUNNY   73  68  84 S9        29.90R
LIBERAL        CLOUDY    71  65  81 SE14      29.88F
PRATT          MOSUNNY   70  67  89 S6        29.91R
$$

KSZ066>073-081>083-090>101-271400-
SOUTHEAST KANSAS

CITY           SKY/WX    TMP DP  RH WIND       PRES   REMARKS
CHANUTE        SUNNY     74  70  87 S6        29.91R
COFFEYVILLE    SUNNY     73  70  90 SE3       29.90R
HUTCHINSON     MOSUNNY   73  68  84 S6        29.89S
MEDICINE LODGE   N/A     71  68  90 E5        29.89R
NEWTON         MOSUNNY   75  66  73 S9        29.91R
PARSONS        SUNNY     74  71  91 VRB3      29.92R
WICHITA INTL   PTSUNNY   73  67  81 S7        29.89R
WICHITA JABRA  MOSUNNY   75  68  78 S6        29.90R
WICHITA MCCONL MOSUNNY   74  65  74 S6        29.90R
WINFIELD       MOSUNNY   74  68  81 S6        29.91R
$$

KSZ007>012-019>026-033>040-048>060-102>105-271400-
NORTHEAST KANSAS

CITY           SKY/WX    TMP DP  RH WIND       PRES   REMARKS
CONCORDIA      MOSUNNY   76  66  71 SW6       29.87R
EMPORIA        MOSUNNY   73  67  81 CALM      29.89R
LAWRENCE       SUNNY     75  70  84 CALM      29.88R
MANHATTAN      MOSUNNY   74  66  76 SW5       29.88R
OLATHE IND     SUNNY     76  68  76 SW7       29.90R
OLATHE EXE     SUNNY     75  69  81 SW5       29.89R
SALINA         MOSUNNY   73  68  84 S5        29.88S
TOPEKA BILLARD SUNNY     75  70  84 CALM      29.88R
TOPEKA FORBES  SUNNY     75  69  81 CALM      29.89R
$$




USA.gov is the U.S. government's official web portal to all federal, state and local government web resources and services.